Tracking 19817 objects as of 21-Aug-2019
HD Live streaming from Space Station
objects crossing your sky now

SL-14 DEB

Track SL-14 DEB now!
10-day predictions


NORAD ID: 35524
Int'l Code: 1987-068CT
Perigee: 873.0 km
Apogee: 906.5 km
Inclination: 82.5 °
Period: 102.6 minutes
Semi major axis: 7260 km
RCS: 0.005 m2 (small)
Launch date: August 18, 1987
Source: Commonwealth of Independent States (former USSR) (CIS)
Launch site: PLESETSK MISSILE AND SPACE COMPLEX (PKMTR)

Note: This is SATELLITE DEBRIS
aabbcc
Your satellite tracking list
Your tracking list is empty




NASA's NSSDC Master Catalog

Two Line Element Set (TLE):
1 35524U 87068CT  19227.07350176  .00000453  00000-0  27999-3 0  9999
2 35524  82.5190 351.9422 0023054 318.0569  41.8835 14.03245288829991
Source of the keplerian elements: AFSPC